Location: Asarope
(8.2500°N, 4.4833°E)
Time: 14:55:50
(UTC+00:00)

ARIANE 5 R/B - Pass Details

Date: 07 June 2020
Orbit: 290 x 33419 km, 1.6° (Epoch: 07 July)

Event Time Altitude Azimuth Distance (km) Brightness Sun altitude
Exits shadow 04:41:58 11° 205° (SSW) 1,046 2.8 -10.2°
Maximum altitude 04:42:50 14° 176° (S) 947 2.8 -10.0°
Drops below altitude 10° 04:44:07 10° 138° (SE) 1,220 3.8 -9.7°
Sets 04:47:13 0° 108° (ESE) 2,686 6.1 -9.0°
